| time (UTC) | temp F | wind direction | speed MPH | gust MPH | rain 1hr in | rain 24hr in | rain mn in | humidity % | barometer mb |
| 20260503035829 | 55 | 350 | 0.0 | 0.0 | 0.00 | 0.00 | 0.00 | 40 | 1016.7 |
| 20260503035333 | 56 | 355 | 0.0 | 0.0 | 0.00 | 0.00 | 0.00 | 41 | 1016.6 |
| 20260503034830 | 56 | 355 | 0.0 | 0.0 | 0.00 | 0.00 | 0.00 | 40 | 1016.6 |
| 20260503034331 | 56 | 360 | 0.0 | 0.0 | 0.00 | 0.00 | 0.00 | 39 | 1016.5 |
| 20260503033830 | 56 | 360 | 0.0 | 0.0 | 0.00 | 0.00 | 0.00 | 39 | 1016.4 |
| 20260503033329 | 56 | 4 | 0.0 | 0.0 | 0.00 | 0.00 | 0.00 | 37 | 1016.4 |
| 20260503032852 | 56 | 360 | 0.0 | 0.0 | 0.00 | 0.00 | 0.00 | 36 | 1016.4 |
| 20260503032333 | 56 | 355 | 0.0 | 0.0 | 0.00 | 0.00 | 0.00 | 34 | 1016.4 |
| 20260503031831 | 56 | 350 | 0.0 | 0.0 | 0.00 | 0.00 | 0.00 | 32 | 1016.3 |
| 20260503031328 | 56 | 350 | 0.0 | 0.0 | 0.00 | 0.00 | 0.00 | 32 | 1016.3 |
| 20260503030829 | 55 | 350 | 0.0 | 0.0 | 0.00 | 0.00 | 0.00 | 32 | 1016.3 |
| 20260503030328 | 55 | 350 | 0.0 | 0.0 | 0.00 | 0.00 | 0.00 | 33 | 1016.2 |
| 20260503025829 | 55 | 350 | 0.0 | 0.0 | 0.00 | 0.00 | 0.00 | 33 | 1016.3 |
| 20260503025328 | 55 | 350 | 0.0 | 0.0 | 0.00 | 0.00 | 0.00 | 30 | 1016.2 |
| 20260503024828 | 55 | 350 | 0.0 | 0.0 | 0.00 | 0.00 | 0.00 | 30 | 1016.2 |
| 20260503024330 | 56 | 350 | 0.0 | 0.0 | 0.00 | 0.00 | 0.00 | 29 | 1016.2 |
| 20260503023830 | 55 | 345 | 0.0 | 0.0 | 0.00 | 0.00 | 0.00 | 26 | 1016.2 |
| 20260503023328 | 55 | 346 | 0.0 | 0.0 | 0.00 | 0.00 | 0.00 | 27 | 1016.2 |
| 20260503022827 | 55 | 331 | 0.0 | 0.0 | 0.00 | 0.00 | 0.00 | 29 | 1016.2 |
| 20260503022325 | 56 | 331 | 0.0 | 0.0 | 0.00 | 0.00 | 0.00 | 30 | 1016.2 |
| 20260503021823 | 56 | 331 | 0.0 | 0.0 | 0.00 | 0.00 | 0.00 | 30 | 1016.2 |
| 20260503021324 | 56 | 331 | 0.0 | 1.0 | 0.00 | 0.00 | 0.00 | 30 | 1016.2 |
| 20260503020845 | 56 | 331 | 0.0 | 0.0 | 0.00 | 0.00 | 0.00 | 27 | 1016.2 |
| 20260503020321 | 56 | 331 | 0.0 | 0.0 | 0.00 | 0.00 | 0.00 | 30 | 1016.2 |
| 20260503015820 | 56 | 331 | 0.0 | 0.0 | 0.00 | 0.00 | 0.00 | 31 | 1016.3 |
| 20260503015318 | 57 | 331 | 0.0 | 0.0 | 0.00 | 0.00 | 0.00 | 33 | 1016.3 |
| 20260503014818 | 57 | 331 | 0.0 | 0.0 | 0.00 | 0.00 | 0.00 | 34 | 1016.4 |
| 20260503014317 | 57 | 331 | 0.0 | 0.0 | 0.00 | 0.00 | 0.00 | 36 | 1016.3 |
| 20260503013835 | 57 | 331 | 0.0 | 0.0 | 0.00 | 0.00 | 0.00 | 36 | 1016.3 |
| 20260503013333 | 57 | 331 | 0.0 | 0.0 | 0.00 | 0.00 | 0.00 | 37 | 1016.3 |
| 20260503012835 | 57 | 331 | 0.0 | 0.0 | 0.00 | 0.00 | 0.00 | 37 | 1016.4 |
| 20260503012337 | 57 | 331 | 0.0 | 0.0 | 0.00 | 0.00 | 0.00 | 40 | 1016.4 |
| 20260503011819 | 57 | 331 | 0.0 | 0.0 | 0.00 | 0.00 | 0.00 | 39 | 1016.4 |
| 20260503011340 | 57 | 331 | 0.0 | 0.0 | 0.00 | 0.00 | 0.00 | 40 | 1016.4 |
| 20260503010817 | 57 | 331 | 0.0 | 0.0 | 0.00 | 0.00 | 0.00 | 41 | 1016.4 |
| 20260503010317 | 57 | 331 | 0.0 | 0.0 | 0.00 | 0.00 | 0.00 | 39 | 1016.4 |
| 20260503005836 | 57 | 323 | 0.0 | 0.0 | 0.00 | 0.00 | 0.00 | 41 | 1016.4 |
| 20260503005335 | 56 | 327 | 0.0 | 1.0 | 0.00 | 0.00 | 0.00 | 42 | 1016.4 |
| 20260503004834 | 56 | 345 | 0.0 | 1.0 | 0.00 | 0.00 | 0.00 | 42 | 1016.5 |
| 20260503004332 | 56 | 334 | 0.0 | 1.0 | 0.00 | 0.00 | 0.00 | 44 | 1016.5 |
| 20260503003832 | 56 | 342 | 0.0 | 1.0 | 0.00 | 0.00 | 0.00 | 44 | 1016.6 |
| 20260503003334 | 56 | 333 | 0.0 | 0.0 | 0.00 | 0.00 | 0.00 | 43 | 1016.5 |
| 20260503002834 | 56 | 355 | 0.0 | 1.0 | 0.00 | 0.00 | 0.00 | 48 | 1016.6 |
| 20260503002352 | 57 | 6 | 0.0 | 1.0 | 0.00 | 0.00 | 0.00 | 47 | 1016.6 |
| 20260503001830 | 57 | 8 | 0.0 | 1.0 | 0.00 | 0.00 | 0.00 | 48 | 1016.6 |
| 20260503001354 | 58 | 4 | 0.0 | 1.0 | 0.00 | 0.00 | 0.00 | 48 | 1016.6 |
| 20260503000834 | 58 | 321 | 0.0 | 1.0 | 0.00 | 0.00 | 0.00 | 49 | 1016.5 |
| 20260503000333 | 58 | 329 | 0.0 | 1.0 | 0.00 | 0.00 | 0.00 | 48 | 1016.6 |
| 20260502235831 | 58 | 350 | 0.0 | 1.0 | 0.00 | 0.00 | 0.00 | 49 | 1016.6 |
| 20260502235333 | 59 | 333 | 0.0 | 1.0 | 0.00 | 0.00 | 0.00 | 48 | 1016.6 |
| 20260502234830 | 60 | 11 | 0.0 | 0.0 | 0.00 | 0.00 | 0.00 | 44 | 1016.6 |
| 20260502234332 | 61 | 337 | 0.0 | 6.0 | 0.00 | 0.00 | 0.00 | 44 | 1016.7 |
| 20260502233833 | 60 | 258 | 1.0 | 6.0 | 0.00 | 0.00 | 0.00 | 44 | 1016.8 |
| 20260502233332 | 60 | 308 | 0.0 | 1.0 | 0.00 | 0.00 | 0.00 | 42 | 1016.7 |
| 20260502232855 | 60 | 335 | 0.0 | 0.0 | 0.00 | 0.00 | 0.00 | 42 | 1016.8 |
| 20260502232333 | 60 | 336 | 0.0 | 6.0 | 0.00 | 0.00 | 0.00 | 37 | 1016.8 |
| 20260502231832 | 61 | 226 | 0.0 | 9.0 | 0.00 | 0.00 | 0.00 | 36 | 1016.9 |
| 20260502231330 | 61 | 281 | 3.0 | 9.0 | 0.00 | 0.00 | 0.00 | 36 | 1016.9 |
| 20260502230852 | 61 | 304 | 0.0 | 4.0 | 0.00 | 0.00 | 0.00 | 39 | 1017.0 |
| 20260502230331 | 61 | 240 | 0.0 | 3.0 | 0.00 | 0.00 | 0.00 | 39 | 1017.0 |
| 20260502225848 | 60 | 314 | 0.0 | 2.0 | 0.00 | 0.00 | 0.00 | 39 | 1017.0 |
| 20260502225346 | 61 | 318 | 0.0 | 4.0 | 0.00 | 0.00 | 0.00 | 40 | 1017.1 |
| 20260502224823 | 61 | 17 | 1.0 | 4.0 | 0.00 | 0.00 | 0.00 | 38 | 1017.0 |
| 20260502224324 | 61 | 239 | 0.0 | 5.0 | 0.00 | 0.00 | 0.00 | 40 | 1017.1 |
| 20260502223826 | 61 | 285 | 1.0 | 7.0 | 0.00 | 0.00 | 0.00 | 40 | 1017.2 |
| 20260502223327 | 61 | 249 | 3.0 | 7.0 | 0.00 | 0.00 | 0.00 | 39 | 1017.3 |
| 20260502222846 | 61 | 273 | 0.0 | 8.0 | 0.00 | 0.00 | 0.00 | 39 | 1017.3 |
| 20260502222344 | 61 | 322 | 2.0 | 8.0 | 0.00 | 0.00 | 0.00 | 40 | 1017.4 |
| 20260502221821 | 61 | 340 | 0.0 | 2.0 | 0.00 | 0.00 | 0.00 | 38 | 1017.4 |
| 20260502221340 | 61 | 268 | 0.0 | 12.0 | 0.00 | 0.00 | 0.00 | 39 | 1017.4 |
| 20260502220821 | 61 | 264 | 2.0 | 12.0 | 0.00 | 0.00 | 0.00 | 39 | 1017.4 |
| 20260502220323 | 61 | 237 | 0.0 | 4.0 | 0.00 | 0.00 | 0.00 | 39 | 1017.4 |
| 20260502215841 | 61 | 13 | 0.0 | 7.0 | 0.00 | 0.00 | 0.00 | 40 | 1017.5 |
| 20260502215322 | 61 | 195 | 0.0 | 9.0 | 0.00 | 0.00 | 0.00 | 40 | 1017.5 |
| 20260502214821 | 61 | 336 | 2.0 | 9.0 | 0.00 | 0.00 | 0.00 | 38 | 1017.5 |
| 20260502214319 | 61 | 183 | 1.0 | 5.0 | 0.00 | 0.00 | 0.00 | 41 | 1017.6 |
| 20260502213817 | 60 | 195 | 1.0 | 5.0 | 0.00 | 0.00 | 0.00 | 41 | 1017.6 |
| 20260502213335 | 60 | 252 | 0.0 | 8.0 | 0.00 | 0.00 | 0.00 | 41 | 1017.7 |
| 20260502212833 | 60 | 343 | 1.0 | 8.0 | 0.00 | 0.00 | 0.00 | 42 | 1017.7 |
| 20260502212330 | 60 | 262 | 0.0 | 2.0 | 0.00 | 0.00 | 0.00 | 45 | 1017.7 |
| 20260502211832 | 59 | 283 | 1.0 | 5.0 | 0.00 | 0.00 | 0.00 | 46 | 1017.8 |
| 20260502211358 | 59 | 272 | 1.0 | 5.0 | 0.00 | 0.00 | 0.00 | 47 | 1017.9 |
| 20260502210851 | 58 | 350 | 0.0 | 4.0 | 0.00 | 0.00 | 0.00 | 50 | 1017.9 |
| 20260502210328 | 58 | 355 | 1.0 | 9.0 | 0.00 | 0.00 | 0.00 | 50 | 1017.9 |
| 20260502205846 | 57 | 296 | 7.0 | 9.0 | 0.00 | 0.00 | 0.00 | 52 | 1017.9 |
| 20260502205325 | 58 | 332 | 0.0 | 5.0 | 0.00 | 0.00 | 0.00 | 49 | 1018.0 |
| 20260502204826 | 59 | 337 | 2.0 | 5.0 | 0.00 | 0.00 | 0.00 | 48 | 1018.0 |
| 20260502204324 | 59 | 281 | 1.0 | 8.0 | 0.00 | 0.00 | 0.00 | 48 | 1018.1 |
| 20260502203822 | 60 | 302 | 0.0 | 8.0 | 0.00 | 0.00 | 0.00 | 47 | 1018.1 |
| 20260502203322 | 60 | 291 | 1.0 | 5.0 | 0.00 | 0.00 | 0.00 | 48 | 1018.1 |
| 20260502202819 | 60 | 233 | 0.0 | 14.0 | 0.00 | 0.00 | 0.00 | 46 | 1018.1 |
| 20260502202317 | 60 | 215 | 4.0 | 14.0 | 0.00 | 0.00 | 0.00 | 33 | 1018.1 |
| 20260502201835 | 60 | 181 | 5.0 | 9.0 | 0.00 | 0.00 | 0.00 | 34 | 1018.0 |
| 20260502201334 | 60 | 219 | 4.0 | 6.0 | 0.00 | 0.00 | 0.00 | 41 | 1018.2 |
| 20260502200832 | 59 | 169 | 1.0 | 4.0 | 0.00 | 0.00 | 0.00 | 45 | 1018.1 |
| 20260502200350 | 60 | 337 | 0.0 | 11.0 | 0.00 | 0.00 | 0.00 | 45 | 1018.2 |
| 20260502195827 | 60 | 195 | 6.0 | 11.0 | 0.00 | 0.00 | 0.00 | 35 | 1018.2 |
| 20260502195324 | 60 | 183 | 3.0 | 8.0 | 0.00 | 0.00 | 0.00 | 37 | 1018.3 |
| 20260502194822 | 60 | 167 | 1.0 | 10.0 | 0.00 | 0.00 | 0.00 | 36 | 1018.2 |
| 20260502194321 | 60 | 266 | 4.0 | 12.0 | 0.00 | 0.00 | 0.00 | 36 | 1018.3 |
| 20260502193818 | 59 | 275 | 4.0 | 12.0 | 0.00 | 0.00 | 0.00 | 35 | 1018.2 |
| 20260502193337 | 59 | 197 | 6.0 | 11.0 | 0.00 | 0.00 | 0.00 | 34 | 1018.3 |
| 20260502192835 | 59 | 255 | 3.0 | 10.0 | 0.00 | 0.00 | 0.00 | 37 | 1018.4 |
| 20260502192334 | 59 | 276 | 3.0 | 9.0 | 0.00 | 0.00 | 0.00 | 36 | 1018.4 |
| 20260502191833 | 59 | 224 | 5.0 | 10.0 | 0.00 | 0.00 | 0.00 | 35 | 1018.4 |
| 20260502191332 | 59 | 157 | 5.0 | 11.0 | 0.00 | 0.00 | 0.00 | 35 | 1018.4 |
| 20260502190850 | 59 | 218 | 3.0 | 13.0 | 0.00 | 0.00 | 0.00 | 36 | 1018.4 |
| 20260502190330 | 59 | 166 | 7.0 | 10.0 | 0.00 | 0.00 | 0.00 | 34 | 1018.4 |
| 20260502185828 | 59 | 304 | 3.0 | 12.0 | 0.00 | 0.00 | 0.00 | 39 | 1018.4 |
| 20260502185330 | 58 | 256 | 6.0 | 14.0 | 0.00 | 0.00 | 0.00 | 35 | 1018.4 |
| 20260502184834 | 58 | 226 | 6.0 | 14.0 | 0.00 | 0.00 | 0.00 | 36 | 1018.5 |
| 20260502184357 | 58 | 241 | 4.0 | 10.0 | 0.00 | 0.00 | 0.00 | 34 | 1018.5 |
| 20260502183834 | 58 | 226 | 5.0 | 12.0 | 0.00 | 0.00 | 0.00 | 37 | 1018.5 |
| 20260502183332 | 58 | 239 | 6.0 | 12.0 | 0.00 | 0.00 | 0.00 | 38 | 1018.6 |
| 20260502182830 | 58 | 220 | 5.0 | 11.0 | 0.00 | 0.00 | 0.00 | 37 | 1018.6 |
| 20260502182330 | 58 | 168 | 6.0 | 10.0 | 0.00 | 0.00 | 0.00 | 35 | 1018.6 |
| 20260502181855 | 58 | 277 | 4.0 | 12.0 | 0.00 | 0.00 | 0.00 | 36 | 1018.6 |
| 20260502181352 | 58 | 218 | 3.0 | 12.0 | 0.00 | 0.00 | 0.00 | 36 | 1018.7 |
| 20260502180854 | 58 | 193 | 7.0 | 12.0 | 0.00 | 0.00 | 0.00 | 35 | 1018.6 |
| 20260502180355 | 58 | 198 | 7.0 | 12.0 | 0.00 | 0.00 | 0.00 | 36 | 1018.5 |
| 20260502170352 | 57 | 192 | 4.0 | 13.0 | 0.00 | 0.00 | 0.00 | 38 | 1018.4 |
| 20260502163819 | 55 | 164 | 3.0 | 11.0 | 0.00 | 0.00 | 0.00 | 40 | 1018.2 |
| 20260502163320 | 55 | 218 | 5.0 | 12.0 | 0.00 | 0.00 | 0.00 | 40 | 1018.2 |
| 20260502162821 | 55 | 191 | 6.0 | 10.0 | 0.00 | 0.00 | 0.00 | 42 | 1018.2 |
| 20260502162318 | 55 | 216 | 5.0 | 11.0 | 0.00 | 0.00 | 0.00 | 41 | 1018.2 |
| 20260502161836 | 55 | 236 | 6.0 | 13.0 | 0.00 | 0.00 | 0.00 | 42 | 1018.3 |
| 20260502161335 | 55 | 202 | 6.0 | 13.0 | 0.00 | 0.00 | 0.00 | 42 | 1018.4 |
| 20260502160836 | 55 | 206 | 3.0 | 10.0 | 0.00 | 0.00 | 0.00 | 43 | 1018.3 |
| 20260502160334 | 55 | 202 | 5.0 | 10.0 | 0.00 | 0.00 | 0.00 | 43 | 1018.4 |
| 20260502152330 | 53 | 200 | 6.0 | 9.0 | 0.00 | 0.00 | 0.00 | 43 | 1018.2 |
| 20260502151850 | 53 | 191 | 6.0 | 10.0 | 0.00 | 0.00 | 0.00 | 42 | 1018.2 |
| 20260502151332 | 53 | 194 | 7.0 | 10.0 | 0.00 | 0.00 | 0.00 | 42 | 1018.2 |
| 20260502150829 | 53 | 189 | 5.0 | 9.0 | 0.00 | 0.00 | 0.00 | 42 | 1018.2 |
| 20260502150347 | 53 | 208 | 6.0 | 9.0 | 0.00 | 0.00 | 0.00 | 41 | 1018.2 |
| 20260502130333 | 50 | 172 | 6.0 | 8.0 | 0.00 | 0.00 | 0.00 | 43 | 1017.6 |
| 20260502123324 | 50 | 188 | 7.0 | 9.0 | 0.00 | 0.00 | 0.00 | 45 | 1017.7 |
| 20260502122843 | 50 | 184 | 7.0 | 9.0 | 0.00 | 0.00 | 0.00 | 45 | 1017.7 |
| 20260502122342 | 50 | 158 | 7.0 | 9.0 | 0.00 | 0.00 | 0.00 | 45 | 1017.7 |
| 20260502121819 | 50 | 182 | 7.0 | 8.0 | 0.00 | 0.00 | 0.00 | 45 | 1017.7 |
| 20260502121320 | 50 | 183 | 6.0 | 10.0 | 0.00 | 0.00 | 0.00 | 46 | 1017.7 |
| 20260502120837 | 50 | 195 | 7.0 | 10.0 | 0.00 | 0.00 | 0.00 | 46 | 1017.8 |
| 20260502120337 | 50 | 183 | 8.0 | 12.0 | 0.00 | 0.00 | 0.00 | 46 | 1017.8 |
| 20260502115836 | 50 | 184 | 8.0 | 12.0 | 0.00 | 0.00 | 0.00 | 45 | 1017.8 |
| 20260502115337 | 50 | 193 | 8.0 | 11.0 | 0.00 | 0.00 | 0.00 | 46 | 1017.8 |
| 20260502114818 | 50 | 188 | 9.0 | 10.0 | 0.00 | 0.00 | 0.00 | 46 | 1017.9 |
| 20260502114318 | 51 | 177 | 9.0 | 12.0 | 0.00 | 0.00 | 0.00 | 46 | 1017.9 |
| 20260502113836 | 51 | 178 | 10.0 | 15.0 | 0.00 | 0.00 | 0.00 | 46 | 1017.9 |
| 20260502113334 | 51 | 180 | 10.0 | 15.0 | 0.00 | 0.00 | 0.00 | 45 | 1017.9 |
| 20260502112833 | 51 | 177 | 12.0 | 19.0 | 0.00 | 0.00 | 0.00 | 45 | 1017.9 |
| 20260502112331 | 51 | 179 | 13.0 | 19.0 | 0.00 | 0.00 | 0.00 | 44 | 1017.9 |
| 20260502111829 | 51 | 155 | 11.0 | 18.0 | 0.00 | 0.00 | 0.00 | 44 | 1017.9 |
| 20260502111333 | 51 | 167 | 12.0 | 16.0 | 0.00 | 0.00 | 0.00 | 45 | 1017.9 |
| 20260502110833 | 51 | 166 | 11.0 | 16.0 | 0.00 | 0.00 | 0.00 | 45 | 1018.0 |
| 20260502110333 | 51 | 177 | 12.0 | 16.0 | 0.00 | 0.00 | 0.00 | 46 | 1017.9 |
| 20260502105855 | 51 | 162 | 11.0 | 14.0 | 0.00 | 0.00 | 0.00 | 47 | 1018.0 |
| 20260502105335 | 51 | 163 | 11.0 | 14.0 | 0.00 | 0.00 | 0.00 | 46 | 1018.0 |
| 20260502104833 | 51 | 158 | 10.0 | 13.0 | 0.00 | 0.00 | 0.00 | 46 | 1018.0 |
| 20260502104330 | 52 | 165 | 9.0 | 13.0 | 0.00 | 0.00 | 0.00 | 45 | 1018.0 |
| 20260502103848 | 52 | 158 | 8.0 | 12.0 | 0.00 | 0.00 | 0.00 | 47 | 1018.0 |
| 20260502103325 | 52 | 145 | 8.0 | 12.0 | 0.00 | 0.00 | 0.00 | 47 | 1018.0 |
| 20260502102823 | 52 | 152 | 9.0 | 12.0 | 0.00 | 0.00 | 0.00 | 47 | 1018.0 |
| 20260502102321 | 52 | 166 | 8.0 | 12.0 | 0.00 | 0.00 | 0.00 | 46 | 1018.0 |
| 20260502101819 | 52 | 144 | 7.0 | 10.0 | 0.00 | 0.00 | 0.00 | 45 | 1018.0 |
| 20260502101358 | 52 | 147 | 6.0 | 10.0 | 0.00 | 0.00 | 0.00 | 45 | 1018.0 |
| 20260502100836 | 52 | 145 | 6.0 | 10.0 | 0.00 | 0.00 | 0.00 | 44 | 1018.0 |
| 20260502100333 | 52 | 142 | 7.0 | 11.0 | 0.00 | 0.00 | 0.00 | 44 | 1018.0 |
| 20260502091325 | 53 | 112 | 7.0 | 9.0 | 0.00 | 0.00 | 0.00 | 42 | 1018.1 |
| 20260502090843 | 53 | 111 | 8.0 | 9.0 | 0.00 | 0.00 | 0.00 | 42 | 1018.1 |
| 20260502090321 | 53 | 115 | 7.0 | 9.0 | 0.00 | 0.00 | 0.00 | 42 | 1018.2 |
| 20260502071338 | 51 | 200 | 8.0 | 10.0 | 0.00 | 0.00 | 0.00 | 47 | 1018.4 |
| 20260502070819 | 51 | 195 | 8.0 | 10.0 | 0.00 | 0.00 | 0.00 | 47 | 1018.4 |
| 20260502070320 | 51 | 190 | 7.0 | 10.0 | 0.00 | 0.00 | 0.00 | 47 | 1018.4 |
| 20260502065821 | 51 | 200 | 8.0 | 11.0 | 0.00 | 0.00 | 0.00 | 47 | 1018.4 |
| 20260502065343 | 51 | 195 | 8.0 | 10.0 | 0.00 | 0.00 | 0.00 | 47 | 1018.4 |
| 20260502064819 | 51 | 195 | 8.0 | 11.0 | 0.00 | 0.00 | 0.00 | 47 | 1018.4 |
| 20260502064333 | 51 | 199 | 9.0 | 12.0 | 0.00 | 0.00 | 0.00 | 47 | 1018.4 |
| 20260502063832 | 51 | 197 | 8.0 | 11.0 | 0.00 | 0.00 | 0.00 | 47 | 1018.4 |
| 20260502063355 | 51 | 185 | 8.0 | 11.0 | 0.00 | 0.00 | 0.00 | 47 | 1018.4 |
| 20260502062831 | 51 | 212 | 8.0 | 10.0 | 0.00 | 0.00 | 0.00 | 47 | 1018.4 |
| 20260502062330 | 52 | 193 | 8.0 | 10.0 | 0.00 | 0.00 | 0.00 | 46 | 1018.4 |
| 20260502061828 | 52 | 196 | 9.0 | 11.0 | 0.00 | 0.00 | 0.00 | 46 | 1018.4 |
| 20260502061327 | 52 | 201 | 8.0 | 10.0 | 0.00 | 0.00 | 0.00 | 46 | 1018.3 |
| 20260502060824 | 52 | 191 | 8.0 | 11.0 | 0.00 | 0.00 | 0.00 | 46 | 1018.3 |
| 20260502060344 | 52 | 201 | 8.0 | 11.0 | 0.00 | 0.00 | 0.00 | 45 | 1018.3 |
| 20260502055821 | 52 | 185 | 8.0 | 11.0 | 0.00 | 0.00 | 0.00 | 45 | 1018.4 |
| 20260502055319 | 52 | 195 | 8.0 | 14.0 | 0.00 | 0.00 | 0.00 | 45 | 1018.3 |
| 20260502054818 | 52 | 204 | 9.0 | 14.0 | 0.00 | 0.00 | 0.00 | 45 | 1018.3 |
| 20260502054335 | 52 | 202 | 8.0 | 11.0 | 0.00 | 0.00 | 0.00 | 45 | 1018.2 |
| 20260502053833 | 52 | 204 | 7.0 | 8.0 | 0.00 | 0.00 | 0.00 | 44 | 1018.4 |
| 20260502053331 | 52 | 195 | 7.0 | 9.0 | 0.00 | 0.00 | 0.00 | 44 | 1018.4 |
| 20260502052854 | 52 | 200 | 7.0 | 11.0 | 0.00 | 0.00 | 0.00 | 44 | 1018.4 |
| 20260502052332 | 53 | 214 | 7.0 | 11.0 | 0.00 | 0.00 | 0.00 | 43 | 1018.4 |
| 20260502051830 | 53 | 189 | 5.0 | 8.0 | 0.00 | 0.00 | 0.00 | 43 | 1018.4 |
| 20260502051329 | 53 | 181 | 5.0 | 7.0 | 0.00 | 0.00 | 0.00 | 43 | 1018.4 |
| 20260502050829 | 54 | 168 | 5.0 | 9.0 | 0.00 | 0.00 | 0.00 | 42 | 1018.5 |
| 20260502050329 | 54 | 156 | 6.0 | 8.0 | 0.00 | 0.00 | 0.00 | 41 | 1018.5 |
| 20260502045827 | 54 | 149 | 4.0 | 8.0 | 0.00 | 0.00 | 0.00 | 41 | 1018.5 |
| 20260502045324 | 54 | 142 | 4.0 | 6.0 | 0.00 | 0.00 | 0.00 | 41 | 1018.4 |
| 20260502044824 | 53 | 148 | 0.0 | 1.0 | 0.00 | 0.00 | 0.00 | 41 | 1018.4 |
| 20260502044325 | 53 | 125 | 0.0 | 0.0 | 0.00 | 0.00 | 0.00 | 41 | 1018.5 |
| 20260502043847 | 53 | 100 | 0.0 | 0.0 | 0.00 | 0.00 | 0.00 | 40 | 1018.5 |
| 20260502043343 | 53 | 102 | 0.0 | 0.0 | 0.00 | 0.00 | 0.00 | 41 | 1018.4 |
| 20260502042823 | 54 | 93 | 0.0 | 0.0 | 0.00 | 0.00 | 0.00 | 41 | 1018.5 |
| 20260502042321 | 53 | 91 | 0.0 | 0.0 | 0.00 | 0.00 | 0.00 | 41 | 1018.5 |
| 20260502041822 | 54 | 89 | 0.0 | 0.0 | 0.00 | 0.00 | 0.00 | 41 | 1018.4 |
| 20260502041322 | 54 | 89 | 0.0 | 0.0 | 0.00 | 0.00 | 0.00 | 41 | 1018.4 |
| 20260502040819 | 54 | 87 | 0.0 | 0.0 | 0.00 | 0.00 | 0.00 | 41 | 1018.4 |
| 20260502040321 | 54 | 87 | 0.0 | 0.0 | 0.00 | 0.00 | 0.00 | 41 | 1018.4 |